Princeton, MN

1:05 AM CDT on March 26, 2017 (GMT -0500)
Princeton Municipal

Weather History for KPNM - January, 2014

Change the Weather History Date:

Wednesday, January 8, 2014

  Actual Average Record
Temperature  
Mean Temperature -11 °F -  
Max Temperature 0 °F 19 °F 55 °F (2003)
Min Temperature -22 °F 4 °F -22 °F (2014)
Degree Days  
Heating Degree Days 76    
Moisture  
Dew Point -18 °F    
Average Humidity 73    
Maximum Humidity 84    
Minimum Humidity 55    
Precipitation  
Precipitation 0.00 in - - ()
Sea Level Pressure  
Sea Level Pressure 30.37 in    
Wind  
Wind Speed 2 mph (WNW)    
Max Wind Speed 5 mph    
Max Gust Speed -    
Visibility 10 miles    
Events      
Averages and records for this station are not official NWS values.
T = Trace of Precipitation, MM = Missing Value Source: NWS Daily Summary

Daily Weather History Graph

Daily Weather History Graph

Search for Another Location

Airport or City:

Trip Planner

Search our weather history database for the weather conditions in past years. The results will help you decide how hot, cold, wet, or windy it might be!

Date:

Astronomy

Jan. 08, 2014 Rise Set
Actual Time 7:53 AM CST 4:48 PM CST
Civil Twilight 7:20 AM CST 5:22 PM CST
Nautical Twilight 6:43 AM CST 5:59 PM CST
Astronomical Twilight 6:07 AM CST 6:35 PM CST
Moon 11:51 AM CST (1/8) 12:49 AM CST (1/8)
Length of Visible Light 10h 02m
Length of Day
8h 54m
First Quarter, 56% of the Moon is Illuminated
Jan 8
First Quarter
Jan 15
Full
Jan 23
Last Quarter
Jan 30
New
Feb 6
First Quarter

Hourly Weather History & Observations

Time (CST) Temp. Windchill Dew Point Humidity Pressure Visibility Wind Dir Wind Speed Gust Speed Precip Events Conditions
12:13 AM -5.8 °F -16.7 °F -13.0 °F 71% 30.23 in 10.0 mi WNW 4.6 mph - N/A   Scattered Clouds
12:33 AM -5.8 °F -16.7 °F -13.0 °F 71% 30.23 in 10.0 mi WNW 4.6 mph - N/A   Clear
12:53 AM -7.6 °F - -13.0 °F 77% 30.23 in 10.0 mi Calm Calm - N/A   Clear
1:13 AM -7.6 °F - -13.0 °F 77% 30.24 in 10.0 mi Calm Calm - N/A   Clear
1:33 AM -9.4 °F - -14.8 °F 77% 30.25 in 10.0 mi Calm Calm - N/A   Clear
1:53 AM -11.2 °F - -16.6 °F 77% 30.26 in 10.0 mi Calm Calm - N/A   Clear
2:13 AM -14.8 °F - -18.4 °F 84% 30.27 in 10.0 mi Calm Calm - N/A   Clear
2:33 AM -14.8 °F - -18.4 °F 84% 30.28 in 10.0 mi Calm Calm - N/A   Clear
2:53 AM -14.8 °F -24.8 °F -18.4 °F 84% 30.29 in 10.0 mi NW 3.5 mph - N/A   Clear
3:13 AM -14.8 °F -24.8 °F -18.4 °F 84% 30.29 in 10.0 mi NW 3.5 mph - N/A   Clear
3:33 AM -11.2 °F - -16.6 °F 77% 30.29 in 10.0 mi Calm Calm - N/A   Clear
3:53 AM -14.8 °F -24.8 °F -20.2 °F 77% 30.29 in 10.0 mi West 3.5 mph - N/A   Clear
4:13 AM -16.6 °F -26.8 °F -20.2 °F 84% 30.30 in 10.0 mi West 3.5 mph - N/A   Clear
4:33 AM -16.6 °F -26.8 °F -22.0 °F 76% 30.30 in 10.0 mi West 3.5 mph - N/A   Clear
4:53 AM -14.8 °F -27.2 °F -20.2 °F 77% 30.30 in 10.0 mi WNW 4.6 mph - N/A   Clear
5:13 AM -14.8 °F -27.2 °F -20.2 °F 77% 30.30 in 10.0 mi WNW 4.6 mph - N/A   Clear
5:33 AM -14.8 °F -27.2 °F -18.4 °F 84% 30.30 in 10.0 mi WNW 4.6 mph - N/A   Clear
5:53 AM -14.8 °F -24.8 °F -20.2 °F 77% 30.31 in 10.0 mi WNW 3.5 mph - N/A   Clear
6:13 AM -14.8 °F - -20.2 °F 77% 30.31 in 10.0 mi Calm Calm - N/A   Clear
6:33 AM -18.4 °F -28.9 °F -25.6 °F 70% 30.31 in 10.0 mi West 3.5 mph - N/A   Clear
6:53 AM -16.6 °F -26.8 °F -22.0 °F 76% 30.32 in 10.0 mi West 3.5 mph - N/A   Clear
7:13 AM -18.4 °F - -25.6 °F 70% 30.33 in 10.0 mi Calm Calm - N/A   Clear
7:33 AM -18.4 °F - -23.8 °F 76% 30.35 in 10.0 mi Calm Calm - N/A   Clear
7:53 AM -22.0 °F - -27.4 °F 76% 30.36 in 10.0 mi Calm Calm - N/A   Clear
8:13 AM -20.2 °F - -25.6 °F 76% 30.37 in 10.0 mi Calm Calm - N/A   Clear
8:33 AM -18.4 °F - -23.8 °F 76% 30.38 in 10.0 mi Calm Calm - N/A   Clear
8:53 AM -14.8 °F - -20.2 °F 77% 30.39 in 10.0 mi Calm Calm - N/A   Clear
9:13 AM -13.0 °F - -18.4 °F 77% 30.40 in 10.0 mi Calm Calm - N/A   Clear
9:33 AM -11.2 °F - -18.4 °F 70% 30.41 in 10.0 mi Calm Calm - N/A   Clear
9:53 AM -13.0 °F -25.1 °F -18.4 °F 77% 30.42 in 10.0 mi WNW 4.6 mph - N/A   Clear
10:13 AM -11.2 °F -20.6 °F -16.6 °F 77% 30.42 in 10.0 mi WNW 3.5 mph - N/A   Clear
10:33 AM -9.4 °F - -16.6 °F 71% 30.43 in 10.0 mi Calm Calm - N/A   Clear
10:53 AM -9.4 °F - -14.8 °F 77% 30.43 in 10.0 mi Calm Calm - N/A   Clear
11:13 AM -7.6 °F - -14.8 °F 71% 30.42 in 10.0 mi Calm Calm - N/A   Clear
11:34 AM -7.6 °F - -14.8 °F 71% 30.42 in 10.0 mi Calm Calm - N/A   Clear
11:53 AM -5.8 °F - -14.8 °F 65% 30.42 in 10.0 mi Calm Calm - N/A   Clear
12:13 PM -5.8 °F - -14.8 °F 65% 30.42 in 10.0 mi Calm Calm - N/A   Clear
12:33 PM -2.2 °F - -14.8 °F 55% 30.42 in 10.0 mi Calm Calm - N/A   Clear
12:54 PM -2.2 °F - -14.8 °F 55% 30.42 in 10.0 mi Calm Calm - N/A   Clear
1:13 PM -2.2 °F - -13.0 °F 60% 30.41 in 10.0 mi Calm Calm - N/A   Clear
1:33 PM -2.2 °F - -13.0 °F 60% 30.41 in 10.0 mi Calm Calm - N/A   Clear
1:54 PM -0.4 °F - -11.2 °F 60% 30.41 in 10.0 mi Calm Calm - N/A   Clear
2:13 PM -0.4 °F -10.4 °F -11.2 °F 60% 30.41 in 10.0 mi WNW 4.6 mph - N/A   Clear
2:33 PM -0.4 °F -8.3 °F -11.2 °F 60% 30.41 in 10.0 mi WNW 3.5 mph - N/A   Clear
2:54 PM -0.4 °F -10.4 °F -11.2 °F 60% 30.42 in 10.0 mi WNW 4.6 mph - N/A   Clear
3:13 PM -0.4 °F -8.3 °F -11.2 °F 60% 30.42 in 10.0 mi WNW 3.5 mph - N/A   Clear
3:33 PM -0.4 °F -8.3 °F -11.2 °F 60% 30.42 in 10.0 mi West 3.5 mph - N/A   Clear
3:54 PM -0.4 °F -8.3 °F -11.2 °F 60% 30.43 in 10.0 mi WNW 3.5 mph - N/A   Clear
4:13 PM -2.2 °F -10.4 °F -11.2 °F 66% 30.42 in 10.0 mi West 3.5 mph - N/A   Clear
4:33 PM -2.2 °F -12.5 °F -13.0 °F 60% 30.42 in 10.0 mi West 4.6 mph - N/A   Clear
4:54 PM -5.8 °F - -14.8 °F 65% 30.42 in 10.0 mi Calm Calm - N/A   Clear
5:13 PM -7.6 °F - -14.8 °F 71% 30.42 in 10.0 mi Calm Calm - N/A   Clear
5:33 PM -7.6 °F - -14.8 °F 71% 30.43 in 10.0 mi Calm Calm - N/A   Clear
5:54 PM -11.2 °F - -16.6 °F 77% 30.42 in 10.0 mi Calm Calm - N/A   Clear
6:13 PM -11.2 °F - -16.6 °F 77% 30.42 in 10.0 mi Calm Calm - N/A   Clear
6:33 PM -11.2 °F - -16.6 °F 77% 30.42 in 10.0 mi Calm Calm - N/A   Clear
6:53 PM -13.0 °F - -16.6 °F 84% 30.42 in 10.0 mi Calm Calm - N/A   Clear
7:13 PM -14.8 °F - -18.4 °F 84% 30.42 in 10.0 mi Calm Calm - N/A   Clear
7:33 PM -16.6 °F - -20.2 °F 84% 30.42 in 10.0 mi Calm Calm - N/A   Clear
7:53 PM -14.8 °F - -20.2 °F 77% 30.42 in 10.0 mi Calm Calm - N/A   Clear
8:13 PM -14.8 °F - -20.2 °F 77% 30.42 in 10.0 mi Calm Calm - N/A   Clear
8:34 PM -14.8 °F - -20.2 °F 77% 30.42 in 10.0 mi Calm Calm - N/A   Clear
8:53 PM -18.4 °F - -23.8 °F 76% 30.41 in 10.0 mi Calm Calm - N/A   Clear
9:13 PM -16.6 °F - -23.8 °F 70% 30.41 in 10.0 mi Calm Calm - N/A   Clear
9:33 PM -16.6 °F - -23.8 °F 70% 30.41 in 10.0 mi Calm Calm - N/A   Clear
9:53 PM -18.4 °F - -23.8 °F 76% 30.41 in 10.0 mi Calm Calm - N/A   Clear
10:13 PM -18.4 °F - -23.8 °F 76% 30.40 in 10.0 mi Calm Calm - N/A   Clear
10:33 PM -18.4 °F - -23.8 °F 76% 30.40 in 10.0 mi Calm Calm - N/A   Clear
10:53 PM -18.4 °F - -25.6 °F 70% 30.40 in 10.0 mi Calm Calm - N/A   Clear
11:13 PM -20.2 °F - -25.6 °F 76% 30.40 in 10.0 mi Calm Calm - N/A   Clear
11:34 PM -18.4 °F - -25.6 °F 70% 30.38 in 10.0 mi Calm Calm - N/A   Clear
11:53 PM -18.4 °F - -25.6 °F 70% 30.38 in 10.0 mi Calm Calm - N/A   Clear